Terminal Aerodrome Forecast
Issued by NWS

Home | Current Version | Previous Version | Text Only | Print | Product List | Glossary On
Versions: 1 2 3 4 5 6 7 8 9 10 11 12 13 14 15 16
000
FTUS46 KLOX 281700 RRA
TAFWJF
TAF
KWJF 281746Z 2818/2918 05004KT P6SM SKC
     FM282000 24017G25KT P6SM VCTS SCT060CB BKN120
     FM290300 24012KT P6SM BKN120=

USA.gov is the U.S. government's official web portal to all federal, state and local government web resources and services.